Regional Weather Roundup
Issued by NWS

Home | Current Version | Previous Version | Text Only | Print | Product List | Glossary On
Versions: 1 2 3 4 5 6 7 8 9 10 11 12 13 14 15 16 17 18 19 20 21 22 23 24 25 26 27 28 29 30 31 32 33 34 35 36 37 38 39 40 41 42 43 44 45 46 47 48 49 50
000
ASUS43 KLOT 010108
RWRIL

ILLINOIS REGIONAL WEATHER ROUNDUP
NATIONAL WEATHER SERVICE CHICAGO/ROMEOVILLE IL
800 PM CDT MON AUG 31 2015

NOTE: "FAIR" INDICATES FEW OR NO CLOUDS BELOW 12,000 FEET WITH NO
SIGNIFICANT WEATHER AND/OR OBSTRUCTIONS TO VISIBILITY.

* THESE STATIONS ARE NOT UNDER NWS QUALITY CONTROL. THEY ALSO MAY NOT
  REPORT WEATHER SUCH AS PRECIPITATION OR FOG.

ILZ001-002-007-009-015-016-024-010200-
NORTHWEST ILLINOIS

CITY           SKY/WX    TMP DP  RH WIND       PRES   REMARKS
MOLINE         CLEAR     77  72  84 SE3       29.97S
STERLING*      CLEAR     75  72  88 SE3       29.98S
SAVANNA*       CLEAR     78  70  77 SE5       29.98S HX  80
$$

ILZ003-004-008-010-011-017-018-010200-
NORTH CENTRAL ILLINOIS

CITY           SKY/WX    TMP DP  RH WIND       PRES   REMARKS
ROCKFORD       CLEAR     77  70  79 SE3       30.02S
FREEPORT*      CLEAR     73  69  88 SE3       30.02S
ROCHELLE*      CLEAR     73  71  92 CALM      30.02S
DE KALB*       CLEAR     76  71  84 CALM      30.03S
PERU*          PTCLDY    81  68  65 SE6       30.01S HX  84
$$

ILZ005-006-012>014-019>023-010200-
NORTHEAST ILLINOIS

CITY           SKY/WX    TMP DP  RH WIND       PRES   REMARKS
CHICAGO-OHARE  PTCLDY    78  68  71 E3        30.01S HX  80
CHICAGO-MIDWAY PTCLDY    80  68  66 E7        30.01R HX  83
AURORA         CLEAR     76  71  85 CALM      30.02S HAZE
LANSING*       CLEAR     75  69  79 S3        30.02R
JOLIET*        CLEAR     76  71  83 CALM      30.01S
WAUKEGAN       CLEAR     69  65  86 SE3       30.02R
DUPAGE AIRPORT CLEAR     76  70  82 CALM      30.01S
KANKAKEE*      CLEAR     76  70  82 CALM      30.04R
WHEELING       CLEAR     75  67  76 CALM      30.03R
MORRIS*        CLEAR     78  70  75 CALM      30.01R HX  81
ROMEOVILLE*    CLEAR     76  66  72 CALM      30.02R
NORTHERLY ISL    N/A     72  68  87 CALM        N/A
$$

LMZ740>746-010200-
SOUTHERN LAKE MICHIGAN

STATION/POSITION SKY/WX   TEMP    WIND        PRES    VSBY  WAVE
                          AIR SEA DIR/SP/G                  HT/PER
                          (F)     (DEG/KT/KT) (MB)    (MI)  (FT/S)
SOUTHERN BUOY              70 70  130/  6/  6 1016.4R         0
WILMETTE HARBOR            68 63     CALM       N/A           0
HARRISON CRIB              72     150/  5/  7   N/A
BURNHAM HARBOR             71        CALM       N/A
CALUMET HARBOR             74      80/  4/  5   N/A
BURNS HARBOR               74      80/  6/  7 1016.9S
MICHIGAN CITY              76      40/  7/  7   N/A
MICHIGAN CITY 6N           73 72  100/  6/  6   N/A           1
ST. JOSEPH                 75 73  160/  6/  6   N/A           0
$$

ILZ025>027-034>036-040-047-049-050-058-095>099-010200-
WEST-CENTRAL ILLINOIS

CITY           SKY/WX    TMP DP  RH WIND       PRES   REMARKS
QUINCY         CLEAR     79  72  79 SE5       29.99R HX  82
GALESBURG*     CLEAR     79  72  79 SE3       29.99R HX  81
MACOMB*        CLEAR     78  71  79 S3        30.01R
JACKSONVILLE*  PTCLDY    83  73  72 S7        30.01R HX  89
PITTSFIELD*    PTCLDY    81  72  74 SE5       30.01R HX  85
$$

ILZ028>032-037-038-041>044-048-051>054-059>061-010200-
CENTRAL ILLINOIS

CITY           SKY/WX    TMP DP  RH WIND       PRES   REMARKS
PONTIAC        CLEAR     76  73  91 S3        30.03R
BLOOMINGTON    PTCLDY    79  71  76 SE9       30.04S HX  82
DECATUR        CLEAR     79  71  76 S5        30.04R HX  82
PEORIA         MOCLDY    83  69  62 SE3       30.00S HX  86
LACON*         PTCLDY    79  72  78 SE7       29.99S HX  82
LINCOLN*       CLEAR     81  69  68 S6        30.01R HX  84
SPRINGFIELD    PTCLDY    81  71  71 S7        30.01S HX  85
TAYLORVILLE    CLEAR     77  72  83 SE5       30.03R
$$

ILZ033-039-045-046-055>057-062-063-010200-
EAST-CENTRAL ILLINOIS

CITY           SKY/WX    TMP DP  RH WIND       PRES   REMARKS
CHAMPAIGN      CLEAR     75  69  81 S5        30.05R
RANTOUL*       CLEAR     78  72  82 S5        30.04R HX  81
MATTOON        CLEAR     74  69  85 SE5       30.05R HAZE
PARIS*         CLEAR     75  70  84 SW3       30.06R
$$

ILZ079-100>102-010200-
SOUTHWEST ILLINOIS

CITY           SKY/WX    TMP DP  RH WIND       PRES   REMARKS
ALTON          PTCLDY    75  70  83 SE6       30.03R
BELLEVILLE     CLEAR     79  74  86 E5        30.01S HX  82
CAHOKIA*       PTCLDY    78  73  84 SE6       30.01S HX  81
SPARTA*        CLEAR     79  73  81 SE3       30.05R HX  82
$$

ILZ064>066-069>071-074>076-080>082-084>086-088>090-092>094-010200-
SOUTH-CENTRAL ILLINOIS

CITY           SKY/WX    TMP DP  RH WIND       PRES   REMARKS
CARBONDALE     CLEAR     77  70  79 CALM      30.05R
CAIRO*         CLEAR     75  73  96 CALM      30.05S
EFFINGHAM*     CLEAR     76  70  81 E3        30.06R
MARION         CLEAR     81  72  74 SE3       30.06R HX  84
MT. VERNON     CLEAR     79  66  65 S3        30.06R HX  81
SALEM*         CLEAR     81  70  70 S5        30.05R HX  84
METROPOLIS*    CLEAR     74  73  93 CALM      30.06S
$$

ILZ067-068-072-073-078-083-087-091-010200-
SOUTHEAST ILLINOIS

CITY           SKY/WX    TMP DP  RH WIND       PRES   REMARKS
LAWRENCEVILLE  CLEAR     75  68  78 S7        30.06R
FLORA*         CLEAR     76  68  77 SE3       30.06R
FAIRFIELD*     CLEAR     78  70  77 CALM      30.05R
HARRISBURG*    CLEAR     76  70  81 SE3       30.06R
ROBINSON*      CLEAR     74  69  84 S3        30.06S
CARMI*         CLEAR     74  70  87 S6        30.05S
$$

ABBREVIATIONS USED IN REMARKS
   TC - TEMPERATURE IN CELSIUS
  WCI - WIND CHILL INDEX
   HX - HEAT INDEX
  VSB - VISIBILITY
$$



USA.gov is the U.S. government's official web portal to all federal, state and local government web resources and services.